COSMOS 886 DEB, 9962

Orbit data source: Space-Track

COSMOS 886 DEB, 9962 is space debris in LEO originally from a launch on Mon, 27 Dec 1976 UTC launched from the Tyuratam Missile And Space Complex (TTMTR). Debris objects in space refer to the collection of defunct objects orbiting the Earth. Examples of debris include non-operational satellites, rocket bodies, and fragments generated from explosions, collisions, or faulty payload assembly.

Loading next visibility...
Identifier
9962, 1976-126BC
Orbit
LEO
Country
Flag of CISCIS
Related business
Manufacturer
Unknown
Mission
Spacecraft
Bus & Motor
Unknown
Mass
Unknown
Launch date (UTC)
1976-12-27 (49 years ago)
Launch vehicle
Unknown
Launch site
Tyuratam Missile And Space Complex (TTMTR)
Object type
Payload
Rocket body
Debris
Shape & HBR
Unknown shape, 0.3 m
Radar Cross Section
Medium (>0.1 m² and <1 m²)

Expand to show TLE details & history
Last TLE update: 1 day ago

TLE from 1 day ago
0 COSMOS 886 DEB
1 09962U 76126BC  26174.89858623  .00007309  00000-0  17154-2 0  9996
2 09962  65.7652 333.9723 0550645 181.1492 178.8360 13.90040007396971
Epoch: 2026-06-23T21:33Z
TLE epoch observation values (Epoch: 2026-06-23T21:33:57.850Z)
Latitude
-0.00002°
Longitude
98.41771°
Altitude
1,332.795 km
Speed
6.991 km/s
True Right ascension
22h 15m 53s
True Declination
0° 00' 00"
Sunlit
Object was in daylight at epoch
Visualization orbit readout
Latitude
Unknown
Longitude
Unknown
Altitude
Unknown
Speed
Unknown
Apparent Right ascension
Unknown
Apparent Declination
Unknown
Sunlit
N/A
Visualization observer readout
Local Sidereal Time
13:08:21
Azimuth
Unknown
Elevation
Unknown
Doppler factor
Unknown
Orbital elements
Apogee altitude
1,329.252 km
Perigee altitude
524.745 km
Semi-major axis
7,305.135 km
Eccentricity
0.05506
Inclination
65.7652°
RAAN
333.9723°
Arg. of periapsis
181.1492°
True anomaly
178.95591°
Mean anomaly
178.836°
Eccentric anomaly
178.89675°
Mean motion
3.47617 °/min
Orbital period
103.56 mins
BSTAR
0.0017154
Loading maneuver chart data...
Computing Atmospheric mass density...
Loading historical data...
Loading historical data...
Loading historical data...
Loading historical data...
Loading historical data...
Loading historical data...
Loading historical data...

Documentation

Showing up to 5 results
|